SL-19 DEB, 23484

Orbit data source: Space-Track

SL-19 DEB, 23484 is space debris in LEO originally from a launch on Mon, 26 Dec 1994 UTC launched from the Tyuratam Missile And Space Complex (TTMTR). Debris objects in space refer to the collection of defunct objects orbiting the Earth. Examples of debris include non-operational satellites, rocket bodies, and fragments generated from explosions, collisions, or faulty payload assembly.

Loading next visibility...
Identifier
23484, 1994-085G
Orbit
LEO
Last TLE update
16 hours ago
Origin
Manufacturer
Unknown
Mission
Spacecraft
Bus & Motor
Unknown
Mass
Unknown
Launch date (UTC)
1994-12-26 (30 years ago)
Launch vehicle
Unknown
Launch site
Tyuratam Missile And Space Complex (TTMTR)
Object type
Payload
Rocket body
Debris
Shape & HBR
Unknown
Radar Cross Section
Medium (>0.1 m² and <1 m²)

Expand to show TLE details & history

TLE from 16 hours ago
0 SL-19 DEB
1 23484U 94085G   25128.60453078  .00000333  00000-0  10868-1 0  9991
2 23484  64.7330  89.2122 0238421 202.9333 332.3025 11.22701845242414
Epoch: 2025-05-08T14:30Z
Definitive object data (Epoch: 2025-05-08T14:30:31.459Z)
Latitude
5.4308°
Longitude
-177.65126°
Altitude
1,870.981 km
Speed
7.026 km/s
True Right ascension
17h 46m 36s
True Declination
5° 24' 10"
Sunlit
Object was in full shadow at TLE epoch
Visualization TLE readout
Latitude
54.68578°
Longitude
45.35603°
Altitude
2,203.007 km
Speed
6.761 km/s
Apparent Right ascension
05h 54m 06s
Apparent Declination
21° 28' 35"
Sunlit
Object is in daylight
Visualization observer readout
Local Sidereal Time
15:06:42
Azimuth
319.448° NNW
Elevation
-17.262°
Doppler factor
1
Orbital elements
Apogee altitude
2,246.305 km
Perigee altitude
1,844.632 km
Semi-major axis
8,423.605 km
Eccentricity
0.0238421
Inclination
64.733°
RAAN
89.2122°
Arg. of periapsis
202.9333°
True anomaly
330.99834°
Mean anomaly
332.3025°
Eccentric anomaly
331.6539°
Mean motion
2.80735 °/min
BSTAR
0.010868
Orbital period
128.23 mins
Loading maneuver chart data...
Loading SW <> Apogee altitude chart data...
Loading historical data...
Loading historical data...
Loading historical data...
Loading historical data...
Loading historical data...
Loading historical data...
Loading historical data...

SL-19 DEB Visibility forecast

Observer location: undefined°, undefined°

Span
Click to sort rows by Start time (UTC) header in descending order
Start Az.
Max El. time (UTC)
Max El. Az.
Max El.
End time (UTC)
End Az.
22 mins2025-05-09 07:09:47.706Z330.945° NNW2025-05-09 07:20:47.706Z41.174° NE40.919°2025-05-09 07:31:47.706Z129.38° SE
18 mins2025-05-09 09:24:47.706Z312.953° NW2025-05-09 09:33:47.706Z251.625° W32.344°2025-05-09 09:42:47.706Z190.911° SSW
21 mins2025-05-09 21:35:47.706Z170.155° S2025-05-09 21:45:47.706Z111.114° ESE34.192°2025-05-09 21:56:47.706Z43.926° NE
23 mins2025-05-09 23:47:47.706Z230.922° WSW2025-05-09 23:58:47.706Z307.413° NW41.507°2025-05-10 00:10:47.706Z29.046° NE
17 mins2025-05-10 02:06:47.706Z290.665° WNW2025-05-10 02:14:47.706Z334.817° NNW23.155°2025-05-10 02:23:47.706Z27.015° NE
15 mins2025-05-10 04:26:47.706Z331.707° NNW2025-05-10 04:34:47.706Z17.545° NNE20.854°2025-05-10 04:41:47.706Z58.513° ENE
16 mins2025-05-10 06:41:47.706Z335.731° NNW2025-05-10 06:50:47.706Z39.35° NE37.935°2025-05-10 06:57:47.706Z109.322° ESE
|